N1JFY Weather Reports


Display with metric or nautical units.
time (UTC)temp
F
wind
direction
speed
MPH
gust
MPH
rain 1hr
in
rain 24hr
in
rain mn
in
humidity
%
barometer
mb
20260508174514 45 285 16.0 24.0 0.00 0.00 0.00 71 1004.1
20260508173013 48 360 14.0 23.0 0.00 0.00 0.00 57 1003.9
20260508171512 49 360 3.0 13.0 0.00 0.00 0.00 48 1003.5
20260508170013 50 360 1.0 12.0 0.00 0.00 0.00 52 1003.4
20260508164513 48 360 0.0 12.0 0.00 0.01 0.00 55 1003.7
20260508163008 49 360 6.0 13.0 0.00 0.01 0.00 58 1003.7
20260508161504 48 244 4.0 10.0 0.00 0.01 0.00 64 1003.7
20260508160008 46 258 2.0 9.0 0.00 0.01 0.00 67 1004.0
20260508154502 44 360 0.0 21.0 0.00 0.01 0.00 70 1004.1
20260508153001 47 360 9.0 16.0 0.00 0.01 0.00 62 1004.0
20260508151602 47 360 10.0 16.0 0.00 0.01 0.00 65 1004.1
20260508150057 45 360 9.0 14.0 0.00 0.01 0.00 69 1004.3
20260508144559 45 360 8.0 14.0 0.00 0.03 0.00 71 1004.3
20260508143104 44 360 9.0 20.0 0.00 0.03 0.00 71 1004.4
20260508141552 44 331 9.0 15.0 0.00 0.03 0.00 73 1004.4
20260508140101 43 337 9.0 16.0 0.00 0.03 0.00 75 1004.4
20260508134549 43 360 10.0 13.0 0.00 0.07 0.00 76 1004.4
20260508133048 42 325 8.0 18.0 0.00 0.07 0.00 79 1004.3
20260508131546 42 288 10.0 17.0 0.00 0.07 0.00 79 1004.1
20260508130044 42 336 9.0 16.0 0.00 0.07 0.00 80 1003.9
20260508124542 41 332 10.0 19.0 0.00 0.11 0.00 80 1004.0
20260508123042 41 360 11.0 18.0 0.00 0.11 0.00 81 1003.8
20260508121543 41 319 10.0 18.0 0.00 0.11 0.00 81 1003.9
20260508120043 41 355 7.0 13.0 0.00 0.11 0.00 82 1003.7
20260508114545 41 321 7.0 15.0 0.00 0.15 0.00 81 1003.6
20260508113041 41 322 8.0 13.0 0.00 0.15 0.00 82 1003.4
20260508111545 40 360 10.0 17.0 0.00 0.15 0.00 82 1003.3
20260508110034 40 290 10.0 14.0 0.00 0.15 0.00 83 1003.2
20260508104536 40 360 11.0 17.0 0.00 0.20 0.00 83 1003.0
20260508103036 39 288 7.0 17.0 0.00 0.20 0.00 83 1002.8
20260508101532 39 360 9.0 14.0 0.00 0.20 0.00 83 1002.6
20260508100032 39 360 9.0 15.0 0.00 0.20 0.00 84 1002.5
20260508094530 38 360 8.0 16.0 0.00 0.26 0.00 84 1002.4
20260508093031 38 360 10.0 16.0 0.00 0.26 0.00 84 1002.2
20260508091532 38 360 10.0 18.0 0.00 0.26 0.00 84 1002.1
20260508090026 38 285 10.0 16.0 0.00 0.26 0.00 83 1002.0
20260508084524 38 360 9.0 15.0 0.00 0.32 0.00 82 1001.9
20260508083022 38 360 8.0 14.0 0.00 0.32 0.00 82 1002.1
20260508081519 38 288 7.0 13.0 0.00 0.32 0.00 81 1002.1
20260508080019 38 272 3.0 12.0 0.00 0.32 0.00 80 1002.2
20260508074518 39 360 5.0 13.0 0.00 0.39 0.00 80 1002.1
20260508073017 39 263 3.0 8.0 0.00 0.39 0.00 79 1002.2
20260508071513 39 290 4.0 8.0 0.00 0.39 0.00 78 1002.2
20260508070012 39 360 3.0 13.0 0.00 0.39 0.00 76 1002.3
20260508064517 39 360 6.0 10.0 0.00 0.46 0.00 76 1002.2
20260508063011 39 286 4.0 12.0 0.00 0.46 0.00 75 1002.3
20260508061509 40 360 6.0 18.0 0.00 0.46 0.00 74 1002.2
20260508060008 40 264 8.0 14.0 0.00 0.46 0.00 74 1002.2
20260508054510 40 360 11.0 17.0 0.00 0.55 0.00 73 1002.3
20260508053004 40 291 10.0 19.0 0.00 0.55 0.00 74 1002.6
20260508051606 40 274 7.0 13.0 0.00 0.55 0.00 74 1002.7
20260508050059 40 360 7.0 11.0 0.00 0.55 0.00 73 1002.8
20260508044555 41 360 8.0 13.0 0.00 0.63 0.00 71 1002.9
20260508043058 41 281 6.0 11.0 0.00 0.63 0.00 69 1003.0
20260508041551 41 255 3.0 9.0 0.00 0.63 0.00 68 1003.0
20260508040048 42 360 0.0 8.0 0.00 0.63 0.00 65 1003.0
20260508034550 43 264 4.0 12.0 0.00 0.72 0.63 63 1003.0
20260508033047 43 290 6.0 12.0 0.00 0.72 0.63 63 1003.0
20260508031544 43 284 4.0 9.0 0.00 0.72 0.63 62 1003.0
20260508030046 43 277 4.0 8.0 0.00 0.72 0.63 61 1003.0
20260508024554 43 241 2.0 8.0 0.00 0.79 0.63 63 1003.1
20260508023042 44 269 1.0 6.0 0.00 0.79 0.63 63 1003.2
20260508021545 44 269 0.0 7.0 0.00 0.79 0.63 62 1003.3
20260508020042 45 290 4.0 12.0 0.00 0.79 0.63 61 1003.3
20260508014541 45 248 5.0 12.0 0.00 0.88 0.63 60 1003.3
20260508013041 45 360 5.0 9.0 0.00 0.88 0.63 60 1003.3
20260508011514 45 258 0.0 5.0 0.00 0.88 0.63 64 1003.2
20260508010015 46 257 0.0 6.0 0.00 0.88 0.63 63 1003.0
20260508004513 46 258 0.0 5.0 0.00 0.97 0.63 63 1003.0
20260508003014 46 360 1.0 10.0 0.00 0.97 0.63 65 1002.8
20260508001512 46 279 2.0 7.0 0.00 0.97 0.63 66 1002.5
20260508000014 47 360 3.0 13.0 0.00 0.97 0.63 67 1002.5
20260507234513 48 360 8.0 13.0 0.00 1.06 0.63 65 1002.4
20260507233011 48 360 9.0 17.0 0.00 1.06 0.63 63 1002.2
20260507231510 49 360 3.0 13.0 0.00 1.06 0.63 61 1002.0
20260507230013 49 261 6.0 10.0 0.00 1.06 0.63 61 1001.9
20260507224513 49 360 10.0 15.0 0.00 1.15 0.63 63 1001.8
20260507223014 49 360 5.0 10.0 0.00 1.15 0.63 68 1001.8
20260507221508 48 360 9.0 15.0 0.00 1.15 0.63 68 1001.9
20260507220007 48 360 7.0 15.0 0.00 1.15 0.63 67 1001.8
20260507214519 49 290 12.0 18.0 0.00 1.25 0.63 67 1001.6
20260507213006 49 360 14.0 24.0 0.00 1.25 0.63 64 1001.4
20260507211507 51 360 14.0 21.0 0.00 1.25 0.63 61 1001.2
20260507210005 53 360 9.0 14.0 0.00 1.25 0.63 53 1000.8
20260507204505 53 360 7.0 15.0 0.00 1.32 0.63 56 1000.7
20260507203004 54 320 9.0 16.0 0.00 1.32 0.63 55 1000.6
20260507201503 54 360 7.0 11.0 0.00 1.32 0.63 59 1000.4
20260507200003 54 360 9.0 17.0 0.00 1.32 0.63 54 1000.4
20260507194503 55 360 5.0 9.0 0.00 1.38 0.63 52 1000.4
20260507193002 55 252 0.0 1.0 0.00 1.38 0.63 49 1000.3
20260507191501 56 217 6.0 9.0 0.00 1.38 0.63 46 1000.3
20260507184604 55 267 3.0 9.0 0.00 1.40 0.63 45 1000.3
20260507183058 55 360 5.0 12.0 0.00 1.40 0.63 44 1000.5
20260507181557 55 28 0.0 9.0 0.00 1.40 0.63 50 1000.6
20260507180057 56 331 7.0 11.0 0.00 1.40 0.63 50 1000.6